Location: Houhaj�rvi
(61.2833°N, 23.0000°E)
Time: 20:04:50
(UTC+00:00)

ARGOS Delta rocket - Pass Details

Date: 27 February 2020
Orbit: 636 x 837 km, 96.5° (Epoch: 07 April)

Event Time Altitude Azimuth Distance (km) Brightness Sun altitude
Exits shadow 17:33:33 - 152° (SSE) 2,429 6.3 -13.6°
Reaches altitude 10° 17:34:30 10° 151° (SSE) 2,043 5.9 -13.8°
Maximum altitude 17:38:53 65° 70° (ENE) 730 3.7 -14.3°
Drops below altitude 10° 17:43:29 10° 349° (N) 2,133 6.6 -14.8°
Sets 17:45:48 0° 347° (NNW) 3,081 7.5 -15.1°
